Probability
22 22 20 15 12 13 13 11 8 6 5 5 5 5 5 6 8 10 10 7 7 8 8 8 9 9 7 7 6 6 8 8 6 3 2 2 2 1 1 1 1 1 1
21 22 21 17 14 14 14 13 10 9 8 7 6 4 5 7 8 9 8 7 6 7 8 9 9 8 7 5 5 4 5 5 4 3 2 2 1 0 0 0 0 1 1
20 23 23 20 17 16 16 15 13 12 10 9 7 5 5 6 6 6 6 6 6 7 8 8 7 7 6 4 3 2 2 2 2 1 1 1 1 0 0 0 0 1 1
24 28 30 27 22 19 18 15 13 12 11 10 8 6 5 3 3 3 4 5 6 6 6 5 4 4 3 2 1 1 1 1 1 1 1 1 0 0 0 0 0 0 0
33 36 38 35 27 22 19 16 14 14 12 11 10 7 4 1 1 1 2 3 4 5 5 3 1 1 1 0 0 0 0 0 1 1 2 1 0 0 0 0 0 0 0
43 44 44 40 33 26 21 18 16 15 12 10 10 8 4 1 0 1 2 2 3 3 4 2 1 0 0 0 0 0 0 0 0 1 1 1 0 0 0 0 0 0 0
53 53 51 45 37 30 25 22 18 15 11 8 7 6 3 1 0 0 1 1 1 2 2 1 0 0 0 0 0 0 0 0 0 0 0 0 0 0 0 0 0 0 0
60 59 55 48 41 34 30 27 22 16 12 9 8 6 5 3 1 0 0 0 0 0 0 0 0 0 0 0 0 0 0 0 0 0 0 0 0 0 0 0 0 0 0
64 62 57 51 45 39 34 29 24 21 17 14 12 10 7 5 2 0 0 0 0 0 1 1 0 0 0 0 0 0 0 0 0 0 0 0 0 0 0 0 0 0 0
65 61 56 51 46 41 34 28 27 26 23 18 15 13 11 7 3 1 0 0 0 0 1 1 0 0 0 0 0 0 0 0 0 0 0 0 0 0 0 0 0 0 0
63 59 53 47 43 38 32 29 28 27 24 21 18 16 13 9 4 1 0 0 0 0 1 1 0 0 0 0 0 0 0 0 0 0 0 0 0 0 0 0 0 1 1
61 57 49 43 39 34 31 29 27 25 23 22 20 17 13 9 5 2 0 0 0 1 1 1 0 0 0 0 0 0 0 0 0 0 0 0 0 0 0 0 0 0 0
59 55 48 43 38 34 30 27 24 22 21 20 19 17 14 12 7 3 0 0 0 1 1 1 0 0 0 0 0 0 0 0 0 0 0 0 0 0 0 0 0 0 0
55 51 45 41 37 34 29 25 22 20 18 17 17 17 15 13 9 4 1 0 0 0 0 0 0 0 0 0 0 0 0 0 0 0 0 0 0 0 0 0 0 0 0
49 45 39 36 34 31 27 22 18 14 12 12 13 13 12 9 6 3 1 0 0 0 0 0 0 0 0 0 0 0 0 0 0 0 0 0 0 0 0 0 0 0 0
43 39 34 32 31 29 25 20 13 8 4 4 5 6 6 4 2 1 1 0 0 0 0 0 0 0 0 0 1 0 0 0 0 0 0 0 0 0 0 0 0 0 0
37 33 30 29 29 28 24 19 14 7 2 1 1 1 1 0 0 0 0 0 0 0 0 0 0 0 0 0 0 0 0 0 0 0 0 0 0 0 0 0 0 0 0
27 26 24 24 25 23 21 17 14 11 6 3 1 0 0 0 0 0 0 0 0 0 0 0 0 0 0 0 0 0 0 0 0 0 0 0 0 0 0 0 0 0 0
16 16 16 17 17 15 13 12 11 10 9 6 3 1 0 0 0 0 0 0 0 0 0 0 0 0 0 0 0 0 0 0 0 0 0 0 0 0 0 0 0 0 0
8 8 8 9 9 8 6 6 6 7 7 6 4 1 0 0 0 0 0 0 0 0 0 0 0 0 0 0 0 0 0 0 0 0 0 0 0 0 0 0 0 0 0
4 3 3 4 5 5 3 3 3 3 4 4 3 1 0 0 0 0 0 0 0 0 0 0 0 0 0 0 0 0 0 0 0 0 0 0 0 0 0 0 0 0 0
1 1 2 3 3 3 3 2 1 2 2 3 2 1 0 0 0 0 0 0 0 0 0 0 0 0 0 0 0 0 0 0 0 0 0 0 0 0 0 0 0 0 0
0 0 1 2 2 1 1 1 1 1 1 1 2 1 0 0 0 0 0 0 0 0 0 0 0 0 0 0 0 0 0 0 0 0 0 0 0 0 0 0 0 0 0
0 0 0 1 1 0 0 0 0 0 0 0 1 1 0 0 0 0 0 0 0 0 0 0 0 0 0 0 0 0 0 0 0 0 0 0 0 0 0 0 0 0 0
0 0 0 0 0 0 0 0 0 0 0 0 0 0 0 0 0 0 0 0 0 0 0 0 0 0 0 0 0 0 0 0 0 0 0 0 0 0 0 0 0 0 0
0 0 0 0 0 0 0 0 0 0 0 0 0 0 0 0 0 0 0 0 0 0 0 0 0 0 0 0 0 0 0 0 0 0 0 0 0 0 0 0 0 0 0
Wind_Speed
7 7 6 6 6 5 5 4 4 4 3 3 3 3 2 2 2 2 3 2 3 3 3 3 3 3 2 3 3 3 3 3 3 1 1 1 2 2 2 2 3 3 5
7 7 7 6 6 6 5 5 4 4 4 3 3 2 2 2 2 2 3 2 3 3 3 3 3 2 2 2 2 3 2 2 3 3 2 1 1 2 3 2 3 4 5
8 8 7 7 7 6 5 5 4 4 3 3 3 2 2 1 1 1 2 2 2 2 2 2 2 2 2 1 2 2 1 2 2 3 3 2 2 2 3 3 4 4 5
8 8 7 7 6 6 5 5 4 4 4 3 3 2 2 1 1 1 1 1 1 1 1 1 1 1 1 1 1 1 1 2 2 3 3 3 3 3 3 3 3 3 3
8 8 7 7 6 6 5 5 4 4 4 3 3 2 2 1 0 1 1 1 1 0 1 1 1 3 3 2 1 1 2 2 2 3 3 3 4 4 4 3 4 4 3
8 8 7 7 7 6 6 5 5 4 3 3 3 2 2 1 4 3 3 0 0 1 1 1 2 3 4 3 3 2 0 2 2 2 3 4 4 5 4 4 5 4 3
9 8 8 8 7 7 7 6 5 4 4 3 3 3 3 4 4 2 2 1 1 1 1 1 1 3 1 2 3 3 2 2 1 2 2 2 4 4 5 5 4 3 2
9 8 8 8 7 7 7 6 6 4 4 3 3 3 3 4 4 2 1 1 2 2 1 1 1 2 2 2 1 2 3 3 2 1 1 1 2 3 4 4 4 4 3
9 8 8 8 7 7 7 6 5 5 4 4 3 3 3 4 4 2 2 2 2 2 2 2 2 2 4 2 1 3 3 3 5 6 6 5 6 5 4 4 5 4 3
8 8 7 7 7 7 7 6 5 5 5 4 4 3 3 3 4 2 2 2 2 2 2 2 4 3 3 2 1 2 3 3 3 5 5 5 5 5 3 3 4 4 3
7 7 7 7 7 7 6 6 6 5 5 4 4 4 3 3 5 3 2 2 2 2 2 1 3 4 3 2 1 1 2 1 3 4 4 4 4 3 3 2 1 2 2
7 8 8 7 6 6 6 6 5 5 5 5 5 4 4 4 3 4 2 1 3 1 1 1 4 5 3 1 1 3 1 2 2 3 3 3 3 3 2 2 1 1 1
7 7 8 7 6 6 7 7 6 5 4 4 4 4 4 4 5 5 4 2 0 1 2 5 4 4 5 3 3 2 3 2 2 2 2 2 2 3 3 3 3 2 2
6 7 7 7 6 6 5 5 5 5 4 4 4 4 3 4 3 4 5 5 5 4 3 5 5 3 2 2 4 4 2 1 1 2 2 3 3 3 3 3 3 3 3
6 5 6 6 6 5 4 2 2 2 1 2 3 3 3 3 3 2 2 3 3 3 3 4 4 4 4 3 3 2 2 2 2 2 2 3 3 3 2 2 2 3 3
5 5 4 4 5 5 5 4 5 3 5 4 3 1 2 4 5 4 2 2 2 2 3 4 4 3 3 3 3 3 3 2 2 2 3 3 3 3 3 3 3 3 3
4 4 4 4 5 5 5 5 5 4 4 4 3 3 3 4 5 4 4 4 4 4 5 3 3 3 3 3 3 3 2 2 2 2 3 3 3 3 3 3 3 3 3
3 3 3 3 4 4 4 4 4 5 5 4 4 4 5 5 5 5 5 5 4 4 4 3 3 3 3 3 3 3 3 3 3 3 3 3 3 3 3 4 4 4 4
2 2 2 2 3 3 3 4 4 5 4 4 4 5 6 6 6 5 6 4 3 4 4 3 3 3 3 3 3 3 3 3 3 3 3 3 3 4 4 4 4 4 5
2 2 2 2 3 3 3 4 4 4 4 4 4 4 6 6 5 5 5 4 4 3 3 3 3 3 2 3 3 3 4 4 4 4 4 4 4 4 4 5 5 5 5
1 2 4 3 3 3 3 3 3 3 3 4 3 3 3 5 4 5 4 4 3 3 3 3 3 3 3 3 3 4 5 4 4 4 4 4 4 4 5 5 6 6 6
1 2 2 2 2 2 2 2 2 3 3 3 3 5 5 4 3 3 3 3 3 2 2 2 3 3 3 3 3 4 4 4 4 4 4 4 5 5 5 5 6 6 6
2 2 2 2 2 3 3 2 2 3 2 2 2 3 3 2 2 1 1 1 2 2 2 2 3 3 3 3 3 3 4 4 4 4 4 5 5 6 6 6 7 7 7
2 2 2 2 2 2 2 2 2 2 2 2 2 2 2 2 2 1 1 1 1 1 1 2 2 2 2 2 2 3 3 3 4 5 6 6 6 6 6 7 7 8 8
2 2 2 2 2 2 2 2 2 2 2 1 1 1 1 1 1 1 1 0 1 1 1 1 1 2 3 3 3 3 1 2 3 5 6 7 8 8 8 8 8 8 8
2 2 2 2 2 2 2 2 2 2 2 2 2 1 1 1 1 0 0 0 0 1 1 1 1 2 2 3 3 3 2 3 4 5 6 7 8 8 8 8 9 9 9
Wind_Direction
184 185 188 188 193 200 204 208 211 216 212 209 210 218 222 231 235 233 245 245 253 262 261 246 243 259 258 253 247 242 239 231 221 235 225 136 140 138 117 119 118 114 101
178 178 181 183 189 192 193 197 198 199 202 196 204 212 220 220 232 246 257 257 262 267 272 266 255 241 245 260 255 244 237 222 205 199 191 155 148 139 132 132 114 97 96
173 176 176 181 184 188 185 184 186 185 188 186 192 195 198 213 230 249 273 277 265 271 278 273 272 261 251 249 254 244 209 191 186 181 181 157 159 149 136 124 109 110 110
173 175 176 179 178 177 174 174 174 176 179 178 178 177 182 180 221 263 274 279 267 276 292 301 306 311 310 274 233 211 179 174 173 176 165 163 159 158 158 145 137 135 124
175 174 173 170 168 168 168 168 165 169 171 166 170 171 176 180 41 327 262 226 240 285 52 30 54 56 40 357 303 200 184 191 180 172 174 173 165 170 177 170 148 127 107
176 174 167 166 166 165 164 162 161 163 160 162 170 171 160 97 69 28 323 224 92 71 68 59 102 101 83 76 58 53 134 197 192 192 195 188 182 181 166 165 157 155 149
174 170 168 170 169 169 166 162 165 167 161 159 155 147 127 95 89 71 348 309 101 76 60 31 31 70 76 103 111 123 101 97 180 223 198 196 178 171 171 171 170 170 145
171 168 166 170 169 168 167 164 164 165 161 158 153 143 131 109 108 107 295 196 90 80 62 51 55 74 52 38 107 102 89 78 75 121 138 163 150 155 168 157 143 127 117
170 169 168 168 166 168 167 163 163 165 163 157 147 145 141 125 121 137 266 162 125 105 76 51 34 80 57 6 128 115 105 97 82 76 73 84 94 111 138 148 151 157 152
172 169 165 168 171 173 169 167 165 168 162 158 146 149 150 135 128 154 260 206 153 144 123 114 77 56 67 3 165 139 131 116 113 116 113 122 125 127 150 179 176 177 163
164 161 162 168 173 170 166 167 167 170 164 162 149 145 141 133 140 152 259 256 190 179 164 142 99 90 80 39 327 72 83 118 140 136 130 129 132 135 150 162 216 210 194
162 161 160 165 169 162 162 163 167 169 165 163 160 163 158 152 135 140 147 283 317 186 166 118 100 115 110 81 71 75 95 230 166 147 140 137 138 137 135 133 126 64 18
164 164 162 162 162 162 165 165 167 173 181 176 178 179 169 156 137 137 147 142 342 237 86 77 105 147 162 145 134 164 213 196 159 156 148 139 131 129 137 139 139 137 124
167 165 161 158 158 160 169 173 173 177 183 184 184 181 168 162 157 154 159 160 163 171 158 139 154 171 187 124 160 187 205 175 180 164 152 144 145 154 161 159 164 170 166
162 159 158 158 156 157 154 137 171 159 169 190 181 178 177 170 125 103 184 174 181 164 174 184 185 181 185 180 178 177 179 175 189 182 165 157 161 164 162 170 188 191 193
166 163 161 159 160 163 154 139 66 71 88 85 61 71 112 103 120 131 140 120 129 162 208 199 196 201 202 195 192 185 190 197 196 188 182 180 181 181 179 187 200 210 209
174 166 168 164 169 174 170 166 156 122 95 96 108 109 122 130 141 155 162 158 163 187 212 206 200 205 209 205 206 204 197 190 202 203 197 194 196 197 194 198 207 216 219
181 167 178 173 177 179 176 173 172 171 165 163 161 158 160 163 168 173 170 175 176 198 219 217 209 206 207 212 211 211 204 189 199 209 208 206 208 210 211 217 219 229 228
186 181 176 175 175 171 171 173 177 180 178 170 163 156 168 169 167 172 182 205 195 194 207 219 220 213 209 209 213 213 209 206 208 216 215 216 220 223 227 232 228 217 242
169 142 180 183 176 175 177 181 183 185 182 182 183 171 160 173 176 173 190 208 214 207 208 216 221 224 215 217 214 213 212 211 210 220 220 221 227 234 236 241 243 232 231
181 158 171 190 192 189 187 187 187 189 189 186 179 160 185 190 186 185 189 199 213 213 207 216 220 222 222 221 223 223 227 227 222 225 226 226 232 238 245 243 241 242 242
195 189 193 186 176 177 182 187 183 179 181 184 167 156 181 209 195 190 188 194 209 215 213 223 230 223 225 229 228 230 231 229 227 229 234 234 233 238 242 245 247 248 249
193 178 177 182 172 163 184 184 179 174 172 178 177 168 175 188 191 193 201 199 198 207 210 221 240 237 225 228 234 235 241 243 238 234 240 242 240 240 241 244 249 253 254
175 171 168 169 172 170 165 170 161 152 151 159 171 173 170 175 187 197 222 216 217 221 227 230 239 245 238 245 241 236 239 252 255 241 241 249 251 252 249 247 247 249 253
164 163 165 167 164 160 155 150 135 130 136 136 138 141 135 143 161 183 203 189 206 226 244 242 236 240 242 247 258 260 249 255 265 272 250 248 252 255 257 255 254 253 253
154 152 152 146 142 141 141 137 127 127 129 126 123 118 107 100 94 79 59 89 225 224 240 237 241 248 253 244 251 257 233 235 246 262 263 257 256 257 259 260 261 259 258